Location: Pallagorio
(39.3000°N, 16.9000°E)
Time: 19:05:19
(UTC+00:00)

Cosmos 1606 Rocket - Pass Details

Date: 24 January 2021
Orbit: 604 x 631 km, 82.5° (Epoch: 03 March)

Event Time Altitude Azimuth Distance (km) Brightness Sun altitude
Rises 16:22:01 0° 350° (N) 2,897 6.9 -4.1°
Reaches altitude 10° 16:24:15 10° 348° (NNW) 1,991 6.1 -4.5°
Maximum altitude 16:28:38 72° 265° (W) 656 3.9 -5.3°
Drops below altitude 10° 16:33:02 10° 181° (S) 1,992 6.5 -6.1°
Sets 16:35:16 0° 179° (S) 2,898 7.3 -6.5°
